Wind_Speed
3 5 6 5 4 6 5 2 2 4 2 3 6 5 5 6 3 3 4 4 1 2 4 4 8 9 6 5 5 5 5 6 6 6 6 6 6 9 11 12 13 14 15 16 15 14 13 12 11 10 10 10 11 11 11 12 13 14 14 14 14 15 14 13 14 14 14 14 14 14 14 14 14 13 12 12 12 12 12 12 12 13 14 14 14 14
3 6 5 1 2 1 3 3 3 2 2 3 5 5 5 5 2 3 3 3 2 2 3 6 8 7 5 4 4 4 4 4 4 4 5 5 6 8 10 11 12 12 13 15 15 14 13 12 11 10 9 9 9 10 11 12 14 14 14 15 16 16 16 16 17 17 17 17 17 16 16 16 15 14 14 14 15 15 14 13 13 13 14 14 14 14
5 5 3 4 3 2 4 3 3 2 3 3 4 5 5 4 4 3 2 4 2 3 4 7 5 4 4 3 3 3 3 3 3 4 4 5 5 6 8 10 11 11 12 15 15 14 13 12 12 11 10 9 10 11 12 13 14 15 15 16 17 17 18 18 19 19 19 18 17 16 16 16 16 15 15 16 16 15 14 14 14 15 15 14 15 15
5 2 4 3 0 4 5 3 4 4 4 4 4 5 4 5 4 2 3 4 4 2 4 8 5 2 4 3 3 3 3 4 4 4 5 5 5 6 9 11 12 12 14 15 15 14 14 13 12 11 11 11 11 11 12 13 14 15 16 17 17 18 18 19 19 19 19 17 16 15 14 14 15 15 15 15 15 14 14 15 16 16 17 16 16 16
2 3 3 1 1 3 5 6 6 6 5 4 5 6 3 6 4 1 5 5 3 4 6 8 4 3 7 7 4 4 5 5 5 5 5 5 7 8 10 12 13 14 15 15 15 15 14 13 13 12 12 12 11 12 13 14 15 16 17 16 17 18 18 18 18 17 17 16 15 14 13 13 13 12 12 13 15 16 16 17 18 18 18 17 17 17
3 3 1 4 4 4 6 7 6 6 5 5 6 7 4 6 5 4 7 6 2 3 7 7 6 4 6 8 7 6 6 6 6 6 6 6 7 7 8 11 13 14 15 16 16 15 14 13 13 13 12 12 12 13 14 15 16 16 16 16 16 17 17 17 17 16 16 15 15 15 14 15 15 15 15 16 18 19 20 19 19 18 18 18 18 18
2 2 2 4 6 6 6 6 3 3 6 5 3 4 4 5 7 8 8 6 4 2 4 6 7 4 3 7 9 8 7 7 7 8 8 8 8 8 8 10 12 14 15 16 16 15 14 14 14 13 12 12 13 14 15 15 15 15 15 15 15 16 16 16 16 16 16 16 17 17 17 18 18 19 19 19 19 19 19 18 18 17 18 17 17 18
2 2 2 4 7 7 6 4 2 3 6 3 2 2 5 6 8 9 8 7 4 1 2 4 5 6 4 4 7 9 8 7 8 9 9 10 10 9 9 10 13 14 15 16 16 15 15 14 14 13 13 13 13 14 14 14 14 14 14 15 14 15 15 15 16 16 15 16 17 17 17 18 18 18 18 18 17 17 17 16 17 16 17 17 17 17
3 2 1 3 7 6 3 1 2 2 4 1 3 1 3 4 5 6 7 6 1 0 4 6 4 6 5 2 5 8 8 8 11 11 12 12 12 11 10 11 14 15 16 16 16 15 15 14 13 13 13 13 13 13 13 13 13 13 13 14 14 14 14 15 15 15 16 16 16 16 17 17 17 17 17 17 17 16 16 16 16 16 16 17 17 17
2 2 2 1 2 2 2 3 1 2 1 3 4 4 5 3 3 2 5 4 2 4 7 7 8 7 5 3 6 7 8 10 11 10 12 13 13 12 12 13 15 16 17 17 16 16 15 14 13 13 13 12 12 12 11 11 12 12 12 13 13 13 14 14 15 15 16 16 16 16 17 17 17 17 17 17 16 17 17 17 17 17 17 18 18 18
1 1 1 2 2 1 2 2 1 1 1 4 6 6 7 4 3 2 1 1 3 7 4 3 5 5 5 3 7 6 4 7 10 10 11 14 14 13 13 14 16 17 17 17 16 16 14 13 13 12 12 12 11 11 11 10 11 11 11 11 12 12 13 14 14 15 16 16 17 17 18 18 18 18 19 18 18 19 19 19 19 19 20 20 19 19
1 1 1 2 3 2 1 2 2 1 1 2 3 5 5 3 3 2 1 2 7 7 1 1 1 4 6 3 4 5 1 3 8 11 14 16 16 16 14 15 16 17 17 17 16 15 15 13 13 12 11 11 11 10 10 9 9 9 10 10 11 11 12 13 14 15 16 17 18 19 19 20 20 20 21 21 21 22 22 22 22 22 21 21 21 21
2 2 2 0 2 4 1 3 4 2 3 2 2 6 6 4 4 5 4 4 7 4 1 1 0 4 7 1 4 7 4 2 3 8 15 19 19 18 16 15 16 18 18 17 17 16 15 14 13 12 11 11 10 9 9 8 8 8 9 9 9 11 12 13 15 16 17 18 19 20 21 21 22 22 22 22 22 23 23 24 24 24 24 24 24 24
3 2 1 2 1 4 3 3 3 3 5 5 4 6 7 6 5 7 6 3 5 2 1 1 1 5 6 1 5 6 6 4 2 5 13 18 18 17 17 16 17 18 18 18 17 17 15 14 13 12 11 11 10 9 8 7 7 7 7 8 9 11 12 13 15 16 18 19 20 21 21 22 22 22 22 22 22 22 23 23 24 24 25 25 25 25
5 3 1 1 0 3 3 1 1 1 4 3 0 1 5 5 4 6 5 3 3 2 2 2 1 4 4 2 4 4 5 4 4 6 11 14 15 16 16 16 17 18 18 18 18 17 15 14 13 12 11 10 9 8 7 6 5 5 6 7 9 10 12 14 15 17 18 19 20 21 21 21 21 21 21 21 21 21 22 22 23 24 24 25 25 25
3 2 2 1 2 3 2 2 3 2 3 2 2 1 3 3 1 0 1 1 1 0 2 4 3 2 1 3 4 4 4 5 5 8 11 12 14 15 15 16 16 17 18 19 18 17 16 15 14 12 11 10 9 7 6 5 4 4 5 7 9 10 12 14 15 17 19 20 20 21 21 20 20 20 20 20 20 21 21 22 23 23 24 24 24 25
2 0 2 0 0 3 3 2 2 3 2 3 3 4 2 2 2 2 1 2 0 5 3 4 5 2 2 2 5 6 6 7 7 9 12 13 14 15 15 15 16 17 19 20 19 18 17 15 14 12 11 10 9 7 5 4 2 3 5 6 8 10 12 14 16 17 19 19 20 20 20 20 19 19 19 20 20 21 22 22 23 24 24 24 25 25
1 1 1 1 1 2 4 2 1 3 2 1 3 3 2 1 1 0 3 1 2 8 4 3 6 6 4 2 4 7 9 9 10 11 12 13 14 15 15 15 17 18 19 20 20 19 17 15 14 13 12 10 9 7 5 3 1 2 4 6 8 10 11 13 15 17 18 19 19 19 19 18 18 18 19 19 20 22 23 24 25 25 26 26 26 26
1 2 1 1 1 2 4 2 3 1 2 1 1 1 1 3 3 2 3 3 4 7 5 3 3 6 8 5 5 10 14 13 13 13 13 14 16 16 16 16 17 18 19 20 20 19 17 16 15 14 12 10 9 7 5 3 1 2 4 6 7 9 11 13 14 16 17 18 19 18 18 17 17 18 19 20 22 23 25 26 26 27 27 27 27 27
1 2 1 1 2 3 2 3 4 3 2 0 1 0 1 2 3 2 2 2 4 6 4 2 1 4 6 3 6 11 14 15 15 14 13 16 18 17 16 17 17 18 20 21 20 19 18 17 15 14 12 11 10 8 6 4 3 3 4 6 7 9 11 12 14 15 16 17 18 18 17 17 18 19 21 23 25 26 27 28 28 28 28 28 28 28
1 1 2 2 1 3 1 1 1 0 1 2 4 4 2 1 1 2 1 0 2 4 3 3 5 4 1 2 1 4 7 13 15 14 13 16 18 17 16 17 18 20 22 21 21 20 19 17 16 14 13 12 10 9 7 5 5 4 5 6 7 9 10 12 13 15 16 17 18 18 17 17 19 21 24 26 28 29 29 29 29 29 29 29 29 28
1 2 2 2 2 3 1 2 3 3 2 1 2 2 2 2 2 4 4 1 0 3 2 2 6 4 2 2 1 1 2 9 14 14 14 16 18 17 16 17 19 21 23 22 21 20 18 17 16 15 14 12 11 10 8 7 6 6 7 7 8 9 10 12 13 14 16 17 18 18 17 19 21 23 26 28 30 30 30 30 30 30 29 29 29 29
1 1 2 2 1 1 2 2 1 3 3 2 2 2 1 1 3 5 6 3 2 1 1 1 4 3 1 1 1 2 0 6 13 15 14 15 16 16 16 17 19 22 22 21 20 19 18 17 16 15 14 13 12 11 10 9 8 8 8 8 9 10 11 12 13 15 16 17 18 18 18 20 22 25 28 30 30 30 30 30 30 30 29 29 29 29
1 1 2 1 0 1 1 1 1 1 2 3 3 1 1 2 1 1 2 0 2 4 3 2 5 3 2 1 1 1 1 4 10 13 14 14 14 15 16 17 19 21 22 20 19 18 18 18 17 16 16 15 14 12 11 11 11 11 10 10 10 10 11 12 14 15 16 17 18 18 19 21 23 26 29 29 29 29 30 29 29 29 28 28 28 28
2 2 3 2 1 2 2 2 3 2 1 3 2 2 0 1 3 2 0 0 3 5 6 6 7 3 3 1 1 2 3 6 9 10 12 14 14 15 17 19 20 21 21 20 20 19 18 18 18 17 16 15 15 14 14 13 13 13 12 11 11 11 12 13 14 15 16 17 18 18 20 22 24 27 28 29 29 29 29 28 28 28 28 28 27 28
1 1 3 4 5 5 3 2 2 2 3 2 2 2 2 3 4 2 1 3 5 3 5 9 8 1 2 2 4 5 5 7 9 11 12 13 15 17 19 21 23 22 21 20 19 19 18 18 18 17 16 16 16 15 15 15 14 14 13 13 12 12 13 14 15 16 16 17 18 19 21 23 26 27 28 28 28 28 28 27 27 27 27 26 27 27
1 0 1 2 3 2 1 1 1 1 2 3 3 5 5 4 4 2 1 5 5 3 6 10 4 1 2 5 6 7 7 8 9 11 13 14 16 19 22 24 24 22 21 20 19 18 17 18 18 17 16 16 16 16 16 16 15 15 14 14 14 13 14 15 15 16 17 18 19 20 22 24 26 27 28 28 28 28 27 26 26 26 26 26 26 26
2 2 1 1 1 1 1 1 2 2 1 2 2 5 8 7 5 6 8 6 5 4 8 6 4 5 7 8 9 10 8 8 10 13 16 19 21 23 24 24 24 23 22 20 19 18 16 17 18 17 17 16 16 16 16 16 16 16 15 15 15 15 15 15 16 17 18 19 20 21 23 25 26 27 27 28 28 27 26 26 26 26 26 26 26 26
2 2 1 1 0 1 0 1 1 1 2 1 2 4 8 9 9 12 13 7 6 9 8 1 3 9 6 5 8 11 12 13 15 18 21 23 24 25 25 25 25 25 23 22 20 17 15 17 18 18 18 17 17 17 17 17 17 17 16 16 16 16 16 16 17 18 18 20 21 22 24 25 26 27 27 28 27 25 25 25 26 26 26 26 26 26
2 2 2 2 1 1 1 1 1 2 2 3 5 6 7 10 12 13 11 6 6 11 8 1 4 10 6 3 4 6 12 14 14 17 21 23 24 26 27 28 28 27 25 23 20 17 15 16 18 19 19 19 18 18 18 18 18 17 17 17 17 17 17 17 18 18 19 20 22 23 24 25 26 27 27 27 25 24 25 25 25 25 25 25 25 25
2 2 3 2 2 2 1 1 1 1 2 5 6 6 7 9 10 11 10 5 5 11 10 6 10 12 8 10 9 7 10 12 13 17 21 24 27 28 29 30 30 29 27 25 22 19 16 16 17 19 19 19 19 18 19 19 18 17 18 18 18 18 18 18 18 19 20 21 22 23 24 25 26 26 26 25 24 23 24 25 25 25 25 25 25 25
1 1 3 1 3 2 2 1 2 1 3 7 9 10 12 10 8 9 9 8 9 10 6 6 10 10 4 9 11 10 11 13 16 19 21 24 29 30 31 32 32 31 29 27 25 21 18 18 19 19 19 19 19 20 20 19 18 18 18 18 18 18 18 19 19 20 21 22 23 23 24 25 25 26 25 24 23 23 23 24 24 24 24 25 25 25
2 3 3 2 3 2 1 2 2 2 4 6 6 9 15 15 10 7 7 10 14 11 6 6 8 4 3 7 9 9 10 13 17 21 23 25 29 32 33 34 33 32 30 27 26 23 20 20 20 20 20 20 21 21 20 19 19 19 18 18 19 19 19 19 19 20 21 22 23 23 24 25 25 25 25 23 22 22 23 23 23 24 24 24 24 24
2 2 2 2 2 1 1 2 2 3 6 4 0 2 7 12 15 14 11 12 15 12 8 8 5 1 4 7 8 8 11 16 21 25 27 27 30 32 34 34 33 31 29 26 25 23 22 21 21 21 21 22 22 21 20 20 20 19 19 19 20 20 19 20 20 21 22 22 22 23 24 25 25 25 24 22 22 22 22 23 23 23 23 23 23 23
4 3 2 1 1 0 1 1 3 4 4 1 1 1 2 2 9 14 13 11 12 15 15 14 11 6 7 8 7 7 12 18 21 23 26 29 30 31 31 32 31 29 28 27 25 23 22 21 22 23 23 22 22 21 21 21 20 20 20 20 20 19 19 20 21 22 22 22 23 23 24 25 25 24 24 22 22 22 22 23 23 23 23 23 23 23
4 4 2 1 1 1 1 3 4 4 3 1 0 0 0 1 4 6 9 12 14 17 16 16 17 12 9 9 8 7 9 11 13 16 22 25 27 28 29 29 27 27 26 24 23 22 21 22 23 24 23 22 22 21 21 21 20 20 20 19 19 19 20 21 22 22 22 23 23 24 24 25 25 24 23 23 22 22 22 22 22 22 23 22 22 23
3 3 2 1 2 1 1 3 3 7 6 2 1 2 4 4 5 4 4 7 11 15 17 17 17 14 12 10 9 7 5 4 6 11 17 20 22 25 26 25 24 23 22 21 21 21 22 23 24 23 22 22 21 21 21 20 20 19 19 19 20 20 21 22 22 22 23 23 23 24 24 25 25 24 24 23 22 22 22 22 22 22 22 22 22 22
1 1 2 2 2 1 0 2 3 5 5 2 1 3 4 3 3 3 3 4 4 11 18 18 14 12 12 11 9 8 6 3 5 9 15 20 21 22 22 23 22 21 20 20 21 22 23 23 23 22 21 21 21 20 20 19 19 20 20 21 21 21 22 22 22 22 23 23 23 24 25 25 25 25 24 23 22 22 22 22 22 22 22 22 22 22
2 2 1 2 1 2 2 2 3 4 4 1 2 2 5 5 4 1 3 3 1 4 12 15 12 10 12 14 15 12 7 6 7 6 10 16 18 20 21 21 21 20 20 21 22 22 22 21 21 21 21 21 20 19 19 20 20 20 21 21 21 21 22 21 21 22 23 23 23 24 25 25 25 25 24 24 23 22 22 22 22 22 22 22 22 22
2 2 1 2 3 3 3 3 3 4 3 2 0 4 6 7 5 2 4 2 0 3 9 13 12 11 14 20 20 12 7 9 4 0 5 9 11 15 18 18 19 20 20 21 22 21 21 21 21 21 20 19 19 19 20 20 21 21 21 21 21 22 21 20 21 22 23 23 23 24 25 25 25 25 25 24 23 23 22 22 22 22 22 22 22 22
1 1 0 2 2 3 5 4 4 4 4 3 4 9 12 7 3 3 3 1 2 4 8 13 13 14 19 26 25 16 16 15 6 1 4 7 8 10 13 15 17 18 18 19 20 19 19 20 19 19 19 19 19 20 20 21 21 21 21 21 23 22 20 19 21 23 23 23 24 24 25 24 25 25 25 24 23 23 22 22 22 22 22 22 22 22
2 1 1 1 2 2 3 3 4 5 5 6 10 13 12 6 2 3 2 2 3 5 8 11 14 16 21 28 29 25 22 20 14 8 6 6 7 9 10 12 14 15 16 17 17 17 18 18 18 18 19 18 19 20 21 21 22 22 22 23 23 20 18 20 23 24 23 23 24 24 24 25 25 25 25 24 24 23 22 22 22 22 22 22 23 22
4 4 3 3 3 2 1 1 2 5 3 17 19 10 6 5 1 1 4 2 3 7 10 11 13 15 18 22 26 26 22 18 16 14 10 9 9 9 11 12 12 13 14 14 15 16 16 16 17 18 17 18 20 21 21 23 23 23 24 24 21 19 20 22 24 24 24 24 25 25 24 25 25 25 25 24 24 23 23 22 22 22 22 23 23 23
4 4 3 3 4 4 3 5 4 3 8 27 22 4 9 15 4 3 5 6 5 10 13 12 11 13 14 14 17 21 21 18 15 14 13 12 12 12 12 12 12 13 14 14 15 15 16 17 18 18 18 20 21 22 23 24 24 25 26 23 19 19 22 23 24 25 25 25 25 25 25 25 25 25 25 25 24 24 23 23 23 23 23 23 23 23
5 4 2 2 4 4 3 6 3 3 9 31 26 5 7 20 15 5 5 6 8 12 13 11 11 11 12 11 12 15 18 17 15 14 14 14 14 14 14 13 14 15 15 16 16 17 18 19 19 20 21 22 22 23 24 24 25 26 25 21 19 21 22 23 25 26 26 26 26 25 25 25 25 25 25 25 25 24 24 24 23 23 23 23 23 23
3 3 2 0 2 3 9 13 11 7 10 26 31 19 10 13 16 14 10 8 9 12 12 11 10 10 11 12 13 14 15 15 15 15 15 14 14 15 15 15 16 16 17 18 19 19 20 21 22 23 24 23 23 24 24 24 25 26 23 20 20 22 23 25 27 28 27 27 26 25 25 25 25 25 25 25 25 25 24 24 24 23 23 23 23 23
4 7 5 1 1 2 5 7 8 12 15 20 28 30 24 18 16 17 15 13 12 12 13 13 12 12 13 14 15 15 14 13 14 15 15 15 16 16 16 17 17 18 19 19 19 20 22 23 24 25 25 25 24 23 23 24 25 24 22 21 22 23 25 27 28 28 28 27 26 26 25 25 25 24 24 25 25 25 25 24 24 24 24 23 23 24
5 8 6 3 4 4 4 6 7 10 14 17 21 26 30 29 25 22 20 17 16 15 16 16 15 15 16 16 16 16 16 16 16 16 16 17 17 17 17 18 18 19 19 20 21 22 24 25 26 26 26 25 24 23 23 24 24 24 23 23 24 25 26 28 29 28 28 27 27 26 25 25 25 25 24 25 25 26 25 25 25 25 24 23 23 24
8 9 5 3 4 5 9 13 14 12 13 18 23 24 27 28 29 28 26 24 22 21 20 19 19 18 18 18 18 19 20 20 19 19 19 20 20 20 20 20 20 20 20 21 22 23 25 26 26 26 26 25 23 23 24 24 24 23 23 23 25 26 28 29 29 29 28 28 27 26 25 25 25 24 24 25 25 25 25 25 25 25 24 23 23 24
8 5 3 2 2 5 7 9 9 6 7 10 13 15 16 17 19 23 25 25 26 27 26 24 23 22 21 21 21 21 23 23 22 22 23 24 24 24 23 23 23 22 22 22 23 25 26 26 26 26 26 25 23 24 24 24 24 23 23 24 26 27 28 28 29 29 28 28 27 26 25 25 25 24 25 25 26 25 26 25 25 26 25 23 23 23
14 10 9 7 6 6 6 8 9 9 7 6 5 7 8 7 9 13 15 16 18 20 21 22 23 24 24 24 24 24 26 26 26 26 26 27 27 26 26 25 24 24 23 23 24 25 26 26 26 27 26 24 24 24 24 25 25 24 24 25 26 28 28 28 29 29 28 27 27 26 25 25 25 25 25 25 25 26 26 26 25 25 24 24 23 23
Wind_Direction
164 179 194 200 198 195 189 194 66 46 12 173 178 205 205 194 179 112 79 28 305 125 88 101 118 129 137 128 122 119 116 110 112 116 108 109 108 107 109 104 101 101 101 102 99 94 90 87 84 76 70 71 71 69 66 64 60 59 58 58 57 56 56 57 55 52 51 50 49 47 47 46 45 43 39 34 31 25 18 13 6 1 360 356 353 355
191 208 195 134 31 67 132 116 106 90 91 166 192 194 208 216 145 76 65 43 309 249 120 115 115 124 138 128 127 139 132 115 113 122 120 123 121 118 118 115 111 107 106 107 105 103 100 96 94 88 86 84 79 75 69 67 64 61 60 58 57 54 53 52 51 49 47 47 46 46 47 48 46 44 41 37 35 32 27 21 16 12 7 0 359 360
202 210 127 61 27 76 104 130 163 157 154 179 200 196 203 191 125 98 78 58 360 264 160 150 144 130 140 133 134 149 140 122 117 124 131 135 132 129 126 125 125 120 115 114 113 112 109 107 104 100 96 90 82 77 73 71 69 66 63 61 59 58 55 54 54 53 52 52 52 52 52 52 50 47 45 42 38 35 31 26 24 22 16 10 8 7
197 182 72 51 359 152 133 150 165 158 183 200 197 204 193 155 163 193 137 83 35 15 149 165 175 162 154 152 146 157 143 128 126 125 131 141 140 141 142 138 136 131 124 121 120 118 115 112 109 106 101 94 89 84 80 75 71 67 64 63 62 61 59 58 58 58 59 58 59 59 58 57 56 53 52 48 42 37 32 29 27 25 21 18 15 13
132 49 43 98 216 186 162 167 185 191 203 213 210 221 194 156 186 6 113 126 71 63 130 156 209 225 176 182 177 159 161 153 149 146 141 149 150 147 148 146 144 139 132 128 125 122 119 115 112 109 104 101 96 88 80 75 71 69 66 64 63 61 60 59 58 58 58 57 57 58 56 54 51 49 46 40 34 31 30 29 27 25 23 21 20 19
83 46 141 155 165 195 182 177 197 213 212 215 217 229 226 167 156 105 129 158 196 200 170 177 244 236 165 191 186 154 172 178 172 177 170 164 163 159 154 152 148 142 136 133 129 126 123 119 114 110 107 103 95 87 81 76 73 71 68 65 64 62 60 57 54 52 51 49 47 46 45 42 39 36 34 31 28 29 30 29 27 26 24 22 21 20
64 76 187 176 168 173 191 193 181 211 222 220 201 204 210 172 150 148 161 186 228 226 170 197 245 253 172 200 187 162 178 185 180 191 186 177 178 176 170 161 153 145 140 137 133 130 127 123 118 113 107 101 93 87 82 78 75 73 69 65 63 61 59 56 53 49 47 46 43 42 41 40 40 39 38 35 32 30 30 28 26 24 22 21 20 19
46 92 155 177 172 172 192 191 140 210 228 216 77 147 184 179 172 173 183 209 238 62 127 199 245 268 252 202 171 163 173 189 195 199 192 185 185 180 174 169 162 153 146 141 137 134 130 126 122 115 108 102 96 91 86 82 77 73 69 65 61 59 56 53 49 46 43 43 42 41 41 40 39 38 36 32 29 27 25 22 21 20 19 18 16 15
24 43 101 172 182 185 185 103 82 229 237 91 57 115 158 172 182 184 200 219 245 255 223 196 194 260 256 148 141 168 185 211 210 202 191 184 183 179 174 174 169 160 152 146 142 139 134 130 125 118 112 106 101 95 90 86 79 74 70 64 60 57 53 49 46 41 39 37 36 35 35 34 32 30 27 23 20 18 16 14 12 12 12 11 11 10
39 24 13 295 214 169 80 40 33 263 257 111 109 106 93 89 103 154 219 209 162 242 240 182 175 243 260 154 154 181 208 221 211 197 187 180 179 177 175 176 172 164 157 152 147 143 138 133 128 121 116 111 107 101 94 89 83 76 70 64 58 53 49 45 40 36 33 31 29 28 26 24 22 19 16 13 9 7 6 4 3 3 2 2 1 1
97 60 58 18 4 3 42 40 34 322 348 131 136 122 106 102 97 91 238 178 209 239 244 164 185 239 259 193 170 177 215 214 191 177 176 176 176 175 175 178 174 167 162 156 151 147 141 137 132 127 123 118 112 106 100 93 85 78 71 63 55 48 44 39 35 30 26 23 21 19 17 15 12 9 6 3 0 359 357 356 356 356 355 354 353 353
137 105 85 54 25 330 248 123 91 68 190 169 173 145 126 128 141 165 170 185 229 234 224 7 299 232 242 238 170 169 134 180 180 176 174 172 174 175 174 175 174 172 167 160 156 152 147 144 140 136 131 125 119 111 105 97 87 79 70 60 51 43 38 32 27 22 19 16 13 12 10 7 5 2 360 358 356 355 353 352 352 351 349 348 347 346
133 94 44 69 44 8 256 168 115 137 198 218 195 170 176 180 179 210 203 199 233 235 63 337 125 224 245 258 145 168 144 128 170 178 174 169 169 172 169 171 174 175 170 164 162 159 155 153 149 146 141 133 129 121 111 100 90 80 67 57 46 37 31 25 20 16 13 9 7 6 3 2 1 359 357 356 355 353 352 351 349 348 347 346 345 344
177 142 106 187 115 15 316 193 142 167 192 199 190 188 200 193 192 218 208 214 249 219 91 317 142 231 249 111 130 153 133 111 85 153 170 165 165 167 165 170 175 176 173 171 169 165 162 162 158 156 152 145 139 130 119 106 92 78 63 51 39 31 25 19 15 11 8 5 3 2 360 359 357 356 356 356 355 354 353 352 350 349 348 347 346 344
214 205 137 167 327 7 353 340 360 200 182 187 110 235 223 210 216 229 216 226 251 149 150 193 193 243 244 119 112 114 110 112 104 132 151 153 157 160 162 170 175 177 178 176 175 172 170 170 167 165 160 154 148 138 128 116 96 75 58 42 31 25 19 14 10 7 4 2 1 359 358 358 357 357 357 356 356 355 355 353 352 351 349 348 346 345
247 273 76 41 334 1 22 13 339 306 190 162 43 332 245 248 273 292 253 273 29 359 196 192 228 276 73 110 125 124 131 140 136 142 148 151 156 159 165 172 177 181 182 181 180 179 178 177 175 173 169 164 159 152 143 128 102 68 46 32 22 16 12 8 5 3 1 360 359 358 357 357 358 358 357 357 356 355 355 354 353 351 349 347 346 344
239 344 78 359 74 41 7 347 329 304 223 151 163 201 208 9 45 126 190 71 66 263 232 177 239 245 121 173 167 158 172 167 162 164 163 163 164 167 174 178 181 185 186 187 187 186 184 183 182 180 177 175 170 163 158 142 105 54 28 18 12 8 5 3 0 359 358 357 356 355 356 356 356 356 356 356 355 354 353 352 350 349 346 345 343 342
244 162 73 351 155 72 357 310 279 331 333 170 192 187 118 53 12 213 237 189 197 251 244 188 243 243 213 225 155 171 196 188 181 180 175 174 174 178 183 183 186 189 190 192 192 190 189 188 189 188 185 182 178 176 176 167 127 21 8 4 2 0 358 357 355 354 353 353 354 354 354 354 355 355 355 354 352 351 349 347 345 344 342 341 340 338
288 209 112 7 250 19 4 259 204 101 28 325 266 19 76 221 216 177 223 234 214 241 249 214 248 254 236 216 160 190 202 192 186 184 181 182 182 185 187 186 187 188 192 196 195 194 195 195 196 193 190 189 188 192 195 199 244 327 343 348 351 351 351 351 350 350 351 352 353 353 353 354 354 353 352 350 348 346 344 342 340 339 337 336 335 334
338 243 201 133 295 333 358 223 209 162 133 181 224 60 25 269 258 201 192 258 233 233 245 237 240 239 233 199 166 192 196 186 183 183 187 188 187 189 188 185 186 189 195 198 198 199 200 200 200 198 197 199 200 204 210 223 259 297 322 333 338 341 344 346 345 346 348 350 351 351 351 351 350 349 348 346 343 341 340 338 337 336 335 334 333 332
98 233 217 119 282 267 199 186 272 165 149 194 194 185 176 157 327 260 209 46 256 242 232 253 261 236 160 68 145 189 187 184 181 181 184 186 188 191 189 185 187 193 198 200 200 203 203 203 204 204 205 207 209 215 223 239 262 286 305 317 324 332 336 337 339 342 345 347 348 347 346 345 345 344 343 342 339 338 337 336 336 335 335 334 333 332
154 194 198 140 191 219 122 54 5 355 344 287 219 214 209 179 165 213 221 140 30 267 234 252 274 264 104 65 3 45 171 185 180 177 178 184 189 190 188 189 192 196 200 202 204 205 206 207 210 211 212 213 218 224 233 246 262 277 290 300 309 318 325 328 332 337 341 343 342 340 339 339 340 340 339 338 336 336 335 335 335 335 334 334 333 333
98 123 144 132 184 209 53 58 40 334 319 306 285 304 351 235 213 220 227 190 141 224 63 56 279 282 81 60 11 40 198 183 176 177 177 181 187 187 187 191 195 200 203 203 205 207 210 213 215 216 218 220 224 231 239 249 259 268 277 286 294 304 313 321 327 331 335 337 335 334 333 334 335 336 335 334 333 334 334 334 334 334 334 334 333 332
161 180 165 125 8 142 116 126 127 356 314 257 237 205 193 253 265 272 264 223 162 185 163 180 252 261 108 105 332 340 229 175 177 180 176 178 184 187 189 191 194 200 202 203 206 209 213 217 218 220 223 225 230 236 243 250 255 261 268 276 285 295 306 314 321 326 329 330 329 328 328 329 331 331 331 331 331 332 332 332 333 333 334 334 333 332
202 206 181 173 171 176 182 193 195 176 198 240 225 142 201 106 94 92 165 172 235 207 174 206 241 239 99 104 240 225 199 187 187 185 180 183 186 186 189 193 195 198 200 203 206 209 214 219 223 226 229 231 235 239 245 249 254 258 263 270 278 289 300 307 314 319 322 323 323 322 323 325 327 327 327 328 329 330 331 332 333 333 334 334 333 333
247 220 188 200 207 209 208 206 223 196 170 203 203 177 203 166 157 185 162 196 228 189 169 219 240 253 76 220 226 212 200 194 190 188 189 190 190 188 191 194 196 197 199 201 205 209 215 221 226 229 231 234 236 240 245 249 252 257 261 267 275 284 294 301 308 313 317 317 317 317 319 322 324 324 325 327 328 330 331 332 333 334 334 334 334 333
140 336 274 237 237 246 233 101 360 350 149 165 178 186 193 192 199 217 200 211 199 140 204 222 216 4 244 216 214 213 206 203 195 189 192 195 193 193 195 195 195 196 198 201 206 211 217 223 227 229 230 233 236 241 246 250 253 257 261 266 273 281 287 295 302 308 311 312 313 315 318 320 322 322 324 326 328 329 330 332 333 334 334 334 334 333
158 214 172 91 355 336 37 83 6 332 212 185 173 182 188 190 187 197 217 213 133 156 238 221 162 234 230 195 204 212 202 204 202 195 196 197 196 196 196 196 196 197 199 203 208 214 222 229 229 229 231 234 238 243 247 252 254 257 261 265 270 276 283 290 297 303 306 308 310 313 316 319 319 321 323 325 327 328 330 331 333 334 334 334 334 334
215 236 172 123 206 299 322 27 357 284 235 239 242 211 195 188 189 204 220 215 172 212 247 69 171 236 226 172 204 207 199 203 203 200 200 199 197 197 197 197 198 200 204 208 213 221 233 238 235 233 234 237 241 246 250 253 256 258 261 264 267 272 279 285 292 298 301 303 307 311 314 316 317 319 322 324 326 327 328 330 332 333 333 333 333 333
215 186 132 148 212 253 286 317 268 231 253 252 234 224 210 204 208 218 228 220 216 246 266 19 242 255 249 225 238 217 208 208 205 204 204 201 201 200 200 202 204 206 210 215 221 230 242 246 241 236 236 239 242 247 252 255 258 259 259 261 264 269 275 281 288 293 296 300 305 309 312 313 315 317 320 323 324 325 327 329 330 332 332 332 331 331
232 153 108 128 233 255 342 322 228 217 278 263 243 229 219 218 224 236 245 234 230 260 268 257 264 272 246 219 231 230 210 202 204 208 207 206 205 204 204 208 211 214 217 222 226 235 245 245 238 234 236 239 243 249 253 255 256 257 256 258 262 266 271 278 284 289 293 298 303 307 309 310 312 316 319 321 321 322 325 327 328 330 330 330 329 329
201 125 97 139 235 246 38 342 263 281 283 263 256 236 216 210 213 221 223 207 205 226 238 238 260 272 216 183 202 208 196 196 205 207 207 209 209 208 210 213 216 219 222 225 230 236 244 242 234 233 237 242 247 251 252 253 253 253 255 258 260 263 268 275 280 285 290 296 300 304 306 307 310 314 317 318 319 320 323 324 326 327 328 328 327 327
172 156 141 172 232 240 37 334 296 302 271 254 248 227 209 203 208 217 222 218 214 212 203 213 239 264 108 148 181 191 189 201 212 210 208 210 210 212 215 218 221 224 226 230 234 238 245 243 236 237 242 247 252 252 250 251 251 253 256 257 258 260 266 272 277 283 288 293 298 301 303 305 309 313 315 316 316 318 320 322 323 324 325 325 325 324
170 150 134 180 244 246 344 322 274 243 254 250 48 236 214 205 204 208 219 219 208 207 225 245 256 73 123 169 187 192 201 212 219 218 214 212 212 215 219 222 226 228 230 235 239 242 246 243 238 240 247 251 252 250 248 248 250 253 255 256 258 261 265 270 275 281 287 291 295 298 300 304 308 311 313 314 314 315 317 319 320 321 322 323 323 322
151 125 106 191 264 84 43 314 238 235 253 242 75 9 313 250 207 212 236 244 217 214 232 252 257 225 185 196 204 208 220 224 227 227 223 219 217 219 222 226 228 231 234 238 241 243 243 240 239 244 250 251 249 246 247 249 251 255 256 257 259 260 263 270 275 281 286 290 293 296 299 303 307 310 311 311 311 312 314 315 317 318 320 321 321 321
150 141 129 129 149 149 168 189 213 270 297 187 165 249 93 78 155 201 256 258 229 219 224 238 245 227 187 194 216 227 237 237 238 237 228 223 223 225 227 230 232 235 239 241 242 242 239 238 241 247 249 247 245 245 248 251 253 255 256 256 258 260 265 271 276 281 285 288 291 294 297 301 305 307 308 308 308 309 310 312 314 315 317 318 319 319
150 150 141 174 194 192 223 222 264 312 307 236 186 194 187 175 159 172 274 261 222 212 209 221 240 228 191 185 202 211 213 221 246 243 226 218 220 225 228 231 233 235 237 238 238 236 236 238 241 244 244 242 244 246 248 250 251 253 255 256 258 263 267 271 276 280 283 286 289 292 296 300 303 305 306 306 306 306 307 309 310 311 313 315 316 317
129 187 178 199 205 138 71 271 279 294 279 245 141 173 190 196 177 186 279 280 220 204 202 209 229 218 185 170 169 166 158 187 248 236 217 216 221 224 227 229 230 232 232 232 233 233 235 238 239 240 241 241 243 245 245 248 251 253 256 258 261 265 267 271 277 279 281 283 287 291 295 298 300 302 302 302 303 303 304 305 307 308 309 311 313 314
50 8 140 173 177 151 186 237 224 228 246 272 70 145 183 188 175 195 280 273 269 208 201 205 216 200 173 169 168 155 153 213 241 226 211 220 226 226 228 229 228 230 230 230 232 234 235 237 237 238 240 241 242 245 248 252 254 255 258 260 263 265 268 274 278 278 278 282 286 290 293 296 299 299 299 300 300 301 302 303 304 305 306 308 309 310
67 37 187 201 195 178 187 225 238 241 251 271 148 154 166 172 171 225 280 255 132 220 206 201 202 192 179 176 171 164 190 215 227 253 204 215 219 218 224 227 226 228 229 229 233 234 234 236 237 240 243 244 247 251 253 255 256 257 260 263 264 266 272 279 278 275 276 281 285 288 292 294 296 296 296 297 298 298 299 300 300 302 303 304 306 307
79 34 292 213 203 192 199 235 275 263 232 224 179 162 157 153 170 236 254 180 161 210 203 195 195 192 185 181 177 188 212 213 215 340 198 202 210 211 212 216 218 221 223 226 230 232 233 237 240 243 247 250 252 253 254 256 258 260 263 264 265 271 279 279 274 272 276 281 284 287 291 293 294 294 294 294 295 296 297 298 298 300 301 302 303 305
152 138 141 183 180 180 197 238 294 285 239 170 148 152 157 156 214 221 174 114 180 191 179 183 194 195 192 191 194 203 213 217 225 234 212 204 220 218 214 216 218 220 224 226 229 232 235 239 243 247 251 253 255 256 257 259 261 264 265 266 270 278 281 274 270 273 278 281 283 287 290 292 292 292 292 293 293 294 295 296 297 298 299 301 301 302
168 163 179 189 171 133 96 200 250 296 190 143 135 137 182 201 321 168 166 149 164 173 169 175 189 193 194 200 207 212 217 222 224 224 223 228 232 230 230 232 231 232 234 236 238 240 243 248 251 254 257 258 257 259 259 260 263 265 265 269 276 280 274 269 271 275 277 280 284 287 289 290 290 290 290 291 292 292 294 294 295 297 297 299 299 300
189 184 180 202 188 158 158 187 203 312 167 160 154 147 214 205 209 69 165 194 182 170 170 171 181 189 192 200 209 213 218 223 222 221 228 236 240 242 244 245 245 246 246 247 250 251 253 256 260 262 263 261 260 260 261 262 265 265 267 272 278 275 270 270 272 274 277 280 284 286 287 288 287 287 289 289 290 290 292 292 293 295 296 297 298 299
215 195 155 213 205 186 222 222 207 23 172 182 189 233 221 208 218 214 178 200 196 182 176 172 177 186 190 196 203 209 217 223 223 227 235 242 247 250 251 253 254 254 255 255 255 256 259 262 265 266 265 264 263 262 263 264 265 266 270 276 276 270 269 270 270 273 277 281 283 285 286 285 285 286 287 287 288 289 290 291 292 293 294 295 296 297
226 164 117 191 228 259 270 255 240 250 221 202 207 223 229 217 222 223 219 222 210 198 192 188 190 194 195 198 203 209 218 224 226 232 239 244 248 249 251 254 256 256 256 256 257 260 263 265 266 266 266 267 265 264 265 266 266 268 273 275 270 267 267 268 269 273 277 280 282 284 283 283 284 285 285 285 286 287 288 289 290 291 292 293 294 295
205 181 182 236 282 239 253 247 226 231 235 222 218 226 234 237 233 230 232 233 225 218 212 205 204 205 205 209 214 220 228 233 233 237 240 244 249 251 251 255 258 258 259 260 261 262 263 263 265 267 269 270 269 268 268 268 268 271 272 270 267 267 267 268 270 274 277 279 281 281 281 282 282 282 283 283 283 285 286 288 289 289 290 292 292 292
172 171 180 206 214 219 256 275 265 251 247 243 236 234 236 238 240 241 241 239 236 234 228 223 221 217 216 221 226 231 237 239 240 244 247 250 254 257 257 260 263 263 263 262 261 261 261 263 266 268 270 272 272 271 269 268 269 270 269 268 267 267 267 269 271 275 277 278 279 279 279 280 279 279 280 280 281 283 285 286 287 288 289 291 290 290
135 160 182 190 207 248 282 274 263 267 274 263 253 247 244 244 246 247 249 250 248 244 240 236 233 231 230 230 231 235 241 245 246 249 253 256 259 261 263 266 267 266 265 263 261 261 262 264 266 269 271 273 273 271 269 269 270 269 267 266 266 267 268 270 273 275 276 277 277 277 277 277 278 278 278 278 279 281 283 284 286 287 288 289 288 288
143 174 181 136 206 242 258 248 229 233 271 265 257 259 259 253 249 249 251 253 253 252 251 249 246 244 243 241 240 242 248 253 256 257 259 263 266 267 268 269 268 266 265 263 262 262 263 265 268 270 272 274 274 272 272 271 270 268 266 264 265 266 269 272 273 274 275 275 275 276 276 276 276 276 276 278 279 280 281 283 284 286 288 288 287 287
195 200 178 185 224 235 231 226 214 220 249 263 258 266 265 253 249 251 253 254 255 256 258 257 255 253 251 251 252 253 256 261 263 263 264 266 268 268 268 267 266 265 264 262 262 263 265 267 269 270 273 277 276 274 273 271 269 267 265 264 266 268 270 272 272 273 273 274 274 275 275 274 274 275 276 277 278 279 280 281 283 285 287 287 286 286
Height
1527 1527 1526 1524 1524 1524 1525 1526 1526 1528 1527 1525 1526 1526 1525 1525 1528 1535 1538 1541 1540 1540 1549 1552 1555 1564 1567 1568 1570 1570 1571 1571 1570 1571 1570 1570 1570 1570 1570 1569 1569 1569 1568 1568 1567 1567 1567 1567 1567 1567 1567 1567 1566 1566 1565 1564 1563 1561 1560 1559 1558 1557 1556 1555 1553 1552 1551 1550 1549 1548 1547 1547 1546 1545 1545 1544 1543 1542 1541 1540 1539 1538 1537 1537 1535 1534
1528 1525 1524 1525 1527 1527 1527 1529 1529 1530 1529 1528 1527 1527 1528 1526 1530 1539 1540 1541 1541 1540 1549 1557 1558 1564 1567 1568 1570 1570 1570 1571 1571 1571 1571 1571 1570 1570 1570 1570 1569 1569 1569 1568 1567 1567 1567 1567 1567 1567 1567 1567 1566 1566 1565 1564 1563 1562 1561 1560 1558 1557 1556 1555 1554 1553 1551 1550 1549 1549 1548 1547 1547 1546 1545 1544 1543 1542 1541 1540 1539 1538 1537 1537 1535 1534
1528 1524 1526 1530 1531 1530 1530 1531 1530 1530 1530 1529 1528 1527 1528 1528 1533 1540 1541 1543 1542 1539 1547 1555 1557 1563 1568 1568 1570 1570 1570 1571 1570 1571 1571 1570 1570 1570 1570 1569 1569 1570 1569 1568 1567 1567 1567 1567 1567 1567 1567 1567 1566 1565 1565 1564 1563 1562 1561 1560 1559 1558 1557 1556 1555 1554 1552 1552 1551 1550 1549 1548 1547 1547 1545 1544 1544 1543 1542 1541 1540 1539 1537 1537 1535 1534
1525 1525 1530 1533 1532 1531 1532 1532 1531 1530 1531 1529 1528 1526 1526 1530 1532 1533 1539 1545 1544 1541 1545 1551 1555 1562 1568 1569 1570 1570 1570 1570 1570 1570 1570 1570 1570 1569 1569 1569 1569 1569 1569 1567 1567 1567 1567 1567 1567 1567 1566 1566 1566 1565 1565 1564 1563 1562 1561 1561 1560 1559 1558 1557 1556 1555 1554 1554 1553 1552 1551 1550 1549 1548 1547 1546 1545 1544 1543 1541 1540 1539 1538 1537 1536 1534
1526 1531 1533 1533 1533 1532 1531 1533 1532 1530 1530 1530 1529 1526 1525 1532 1533 1531 1538 1544 1545 1545 1546 1549 1547 1548 1559 1565 1566 1569 1570 1570 1570 1569 1570 1569 1569 1569 1568 1569 1569 1568 1568 1567 1567 1567 1567 1567 1567 1566 1566 1566 1566 1566 1565 1564 1563 1562 1562 1561 1561 1560 1559 1558 1558 1557 1556 1555 1554 1553 1552 1551 1550 1548 1547 1546 1545 1544 1543 1541 1540 1539 1538 1537 1536 1535
1529 1534 1534 1534 1534 1533 1531 1531 1531 1529 1528 1529 1530 1528 1527 1531 1535 1537 1540 1539 1539 1540 1542 1545 1534 1529 1550 1562 1560 1566 1569 1568 1569 1569 1569 1569 1568 1569 1568 1568 1568 1567 1567 1567 1567 1567 1567 1567 1567 1566 1566 1566 1566 1566 1565 1564 1564 1563 1563 1562 1561 1561 1560 1559 1558 1558 1557 1556 1554 1553 1552 1550 1549 1548 1546 1545 1545 1544 1543 1542 1542 1541 1539 1538 1537 1535
1532 1535 1535 1534 1533 1533 1532 1530 1533 1533 1527 1527 1529 1530 1530 1531 1535 1537 1537 1535 1532 1531 1538 1544 1531 1524 1543 1557 1556 1563 1566 1565 1568 1567 1567 1568 1567 1568 1568 1567 1567 1567 1567 1567 1566 1566 1566 1566 1567 1567 1566 1566 1566 1566 1566 1565 1565 1564 1564 1563 1562 1561 1561 1560 1559 1558 1557 1556 1555 1553 1552 1551 1550 1548 1548 1547 1547 1545 1545 1544 1543 1542 1540 1539 1538 1536
1535 1534 1534 1534 1532 1532 1530 1529 1535 1535 1528 1527 1532 1534 1532 1532 1535 1535 1535 1533 1529 1532 1540 1543 1539 1529 1528 1543 1555 1560 1564 1564 1565 1565 1564 1566 1566 1566 1567 1566 1566 1566 1566 1566 1566 1566 1567 1567 1567 1567 1566 1566 1566 1566 1566 1566 1565 1565 1564 1564 1563 1562 1561 1560 1560 1559 1558 1557 1556 1554 1553 1552 1551 1550 1550 1549 1548 1547 1546 1545 1543 1542 1541 1540 1538 1537
1538 1535 1535 1535 1531 1529 1530 1532 1537 1537 1531 1531 1536 1537 1534 1534 1535 1534 1534 1532 1532 1536 1536 1536 1543 1534 1520 1539 1561 1559 1561 1563 1560 1561 1561 1562 1565 1564 1565 1566 1565 1566 1566 1566 1566 1566 1567 1567 1567 1567 1567 1567 1567 1567 1567 1566 1566 1565 1565 1564 1563 1563 1562 1561 1560 1559 1558 1557 1556 1555 1554 1553 1552 1551 1551 1550 1549 1548 1546 1545 1544 1543 1541 1540 1539 1537
1540 1537 1538 1536 1532 1531 1534 1538 1539 1538 1534 1534 1538 1537 1537 1538 1537 1538 1536 1533 1538 1539 1532 1531 1540 1532 1517 1536 1560 1558 1555 1554 1550 1554 1558 1559 1562 1563 1564 1564 1564 1565 1565 1565 1566 1566 1566 1566 1567 1567 1567 1567 1567 1567 1567 1566 1566 1565 1565 1564 1564 1563 1562 1561 1560 1559 1559 1558 1557 1556 1555 1554 1553 1552 1551 1550 1549 1548 1547 1545 1544 1543 1541 1540 1539 1537
1539 1539 1540 1539 1538 1537 1539 1540 1539 1540 1537 1537 1538 1535 1537 1539 1537 1541 1537 1535 1541 1536 1534 1538 1540 1535 1522 1525 1543 1548 1543 1540 1541 1549 1554 1557 1560 1560 1562 1563 1563 1564 1564 1565 1565 1566 1566 1566 1567 1566 1566 1567 1567 1567 1567 1566 1566 1565 1565 1565 1564 1563 1562 1561 1561 1560 1559 1558 1557 1556 1555 1554 1553 1552 1551 1550 1549 1547 1546 1545 1543 1542 1541 1540 1539 1537
1538 1539 1540 1541 1542 1540 1540 1539 1539 1541 1538 1538 1536 1531 1535 1537 1537 1541 1538 1542 1542 1529 1537 1550 1549 1545 1527 1516 1530 1538 1537 1536 1538 1543 1548 1552 1556 1558 1560 1561 1562 1563 1563 1565 1565 1565 1566 1565 1566 1566 1566 1567 1567 1567 1567 1566 1566 1566 1565 1565 1564 1563 1562 1561 1561 1560 1559 1558 1557 1556 1555 1554 1553 1552 1551 1549 1548 1546 1545 1544 1543 1542 1541 1539 1538 1537
1536 1538 1541 1541 1541 1541 1539 1535 1537 1540 1538 1538 1535 1530 1532 1534 1539 1542 1537 1542 1538 1528 1545 1554 1550 1545 1525 1516 1530 1535 1537 1541 1539 1541 1544 1548 1553 1555 1558 1559 1561 1562 1562 1564 1564 1564 1565 1565 1566 1566 1566 1567 1566 1566 1567 1566 1566 1566 1565 1565 1564 1563 1562 1561 1561 1560 1559 1558 1557 1556 1555 1554 1553 1551 1550 1549 1548 1546 1545 1544 1542 1541 1540 1538 1537 1536
1533 1537 1541 1540 1539 1542 1539 1532 1533 1535 1535 1535 1532 1528 1527 1532 1542 1542 1537 1542 1538 1535 1549 1552 1547 1536 1516 1519 1535 1535 1539 1544 1541 1544 1545 1547 1551 1553 1556 1558 1559 1561 1561 1562 1563 1563 1564 1564 1565 1565 1565 1566 1566 1566 1566 1566 1566 1565 1565 1564 1564 1563 1562 1561 1561 1559 1559 1558 1557 1556 1555 1554 1552 1551 1550 1549 1547 1546 1545 1543 1542 1540 1539 1537 1536 1535
1528 1529 1536 1540 1538 1541 1541 1537 1536 1534 1533 1533 1534 1532 1526 1525 1530 1530 1528 1531 1531 1536 1548 1553 1543 1520 1506 1523 1539 1539 1542 1544 1543 1546 1546 1548 1551 1552 1555 1557 1558 1560 1560 1561 1562 1562 1563 1563 1564 1565 1565 1565 1566 1566 1565 1565 1565 1565 1564 1564 1563 1563 1562 1561 1560 1559 1559 1557 1556 1556 1554 1553 1552 1551 1550 1548 1547 1546 1545 1543 1542 1540 1539 1537 1536 1534
1534 1530 1538 1544 1541 1542 1542 1542 1542 1538 1532 1534 1538 1536 1531 1525 1524 1534 1541 1540 1539 1539 1541 1542 1530 1512 1518 1537 1543 1542 1544 1544 1545 1547 1547 1549 1550 1552 1554 1555 1557 1558 1559 1560 1560 1561 1562 1562 1563 1564 1564 1565 1565 1565 1565 1565 1565 1564 1564 1563 1563 1562 1561 1561 1560 1559 1558 1557 1556 1555 1554 1553 1552 1551 1549 1548 1547 1546 1544 1543 1541 1540 1539 1537 1536 1534
1536 1535 1543 1545 1542 1545 1544 1542 1544 1539 1532 1534 1536 1533 1534 1534 1533 1540 1550 1554 1553 1538 1526 1527 1520 1513 1524 1534 1538 1543 1543 1543 1546 1545 1546 1549 1549 1551 1553 1553 1556 1556 1557 1558 1558 1560 1561 1561 1563 1563 1563 1564 1564 1564 1564 1564 1564 1563 1563 1563 1562 1561 1561 1560 1559 1558 1558 1557 1556 1555 1554 1553 1551 1550 1549 1548 1547 1545 1544 1542 1541 1540 1538 1536 1535 1533
1530 1532 1542 1546 1541 1544 1545 1542 1544 1542 1538 1535 1533 1533 1536 1539 1538 1535 1537 1544 1549 1536 1521 1522 1520 1511 1508 1516 1535 1545 1540 1540 1543 1543 1545 1547 1547 1550 1551 1552 1554 1554 1556 1556 1557 1559 1559 1560 1561 1562 1562 1563 1563 1563 1563 1563 1563 1562 1562 1562 1561 1561 1560 1559 1559 1558 1557 1556 1555 1554 1553 1552 1551 1550 1549 1547 1546 1545 1543 1542 1540 1539 1537 1535 1534 1532
1531 1526 1538 1549 1544 1543 1546 1542 1540 1541 1542 1539 1536 1537 1536 1533 1532 1534 1535 1536 1538 1534 1524 1521 1526 1517 1501 1506 1528 1536 1532 1535 1538 1540 1543 1544 1545 1547 1548 1550 1552 1552 1554 1554 1555 1557 1558 1559 1560 1560 1561 1561 1562 1562 1562 1562 1562 1561 1561 1561 1560 1560 1559 1559 1558 1557 1557 1555 1555 1553 1552 1551 1550 1549 1548 1547 1546 1544 1543 1541 1539 1538 1536 1534 1532 1531
1534 1526 1530 1545 1547 1544 1543 1540 1535 1535 1540 1542 1539 1540 1540 1534 1530 1531 1533 1529 1526 1527 1524 1523 1526 1513 1496 1502 1514 1518 1522 1528 1531 1535 1538 1539 1542 1544 1545 1548 1549 1550 1551 1552 1554 1555 1556 1557 1558 1559 1560 1560 1560 1561 1560 1561 1560 1560 1560 1559 1559 1559 1558 1558 1557 1556 1556 1554 1554 1553 1551 1551 1549 1548 1547 1545 1544 1543 1541 1540 1538 1536 1534 1532 1531 1529
1537 1530 1528 1542 1549 1543 1539 1541 1541 1538 1539 1539 1537 1538 1539 1540 1539 1535 1534 1536 1532 1525 1523 1527 1517 1497 1499 1515 1516 1514 1519 1522 1526 1530 1533 1537 1540 1541 1543 1545 1546 1548 1549 1550 1552 1553 1554 1556 1556 1557 1558 1558 1559 1559 1559 1559 1559 1559 1559 1558 1558 1558 1557 1557 1556 1555 1554 1553 1552 1552 1550 1550 1548 1547 1546 1544 1543 1541 1539 1538 1536 1534 1533 1531 1529 1527
1535 1531 1530 1540 1543 1538 1541 1551 1555 1553 1551 1544 1539 1538 1536 1537 1537 1532 1533 1545 1549 1535 1528 1533 1516 1494 1507 1525 1520 1519 1522 1521 1525 1529 1530 1535 1537 1539 1541 1542 1544 1546 1547 1549 1550 1551 1553 1554 1554 1555 1556 1557 1557 1557 1557 1557 1557 1557 1557 1557 1557 1556 1556 1555 1554 1554 1553 1552 1551 1550 1549 1548 1547 1546 1544 1543 1541 1539 1538 1536 1534 1532 1530 1529 1527 1525
1536 1533 1533 1540 1544 1544 1550 1557 1557 1556 1557 1553 1549 1547 1543 1540 1533 1523 1523 1536 1550 1548 1543 1545 1528 1506 1515 1527 1523 1524 1525 1522 1526 1528 1529 1533 1534 1537 1540 1540 1543 1544 1545 1547 1548 1549 1551 1551 1553 1554 1554 1555 1555 1555 1556 1556 1556 1556 1556 1556 1555 1555 1554 1554 1553 1552 1551 1551 1550 1549 1548 1547 1546 1544 1543 1541 1540 1538 1536 1534 1532 1531 1529 1527 1525 1523
1537 1532 1532 1539 1545 1548 1553 1558 1558 1559 1558 1553 1549 1550 1549 1545 1538 1535 1533 1533 1539 1542 1540 1542 1529 1508 1516 1528 1524 1525 1526 1525 1527 1527 1528 1532 1533 1535 1538 1538 1541 1542 1543 1546 1546 1548 1549 1549 1551 1551 1552 1553 1553 1553 1554 1554 1554 1554 1554 1554 1553 1553 1553 1552 1552 1551 1550 1550 1548 1547 1547 1545 1544 1543 1541 1540 1538 1536 1535 1532 1531 1529 1527 1525 1523 1521
1533 1528 1527 1532 1537 1540 1544 1546 1547 1552 1556 1550 1547 1553 1554 1551 1549 1548 1547 1542 1536 1530 1528 1528 1515 1503 1517 1528 1524 1526 1527 1525 1527 1527 1528 1531 1532 1534 1536 1537 1539 1540 1541 1543 1544 1546 1547 1547 1548 1549 1549 1551 1551 1551 1552 1552 1552 1552 1552 1553 1552 1551 1551 1550 1550 1549 1548 1548 1547 1546 1545 1544 1543 1541 1540 1538 1536 1534 1533 1531 1529 1527 1525 1523 1521 1519
1534 1531 1527 1523 1521 1522 1522 1524 1529 1537 1545 1547 1549 1555 1554 1553 1550 1541 1538 1537 1531 1531 1530 1518 1503 1505 1522 1528 1523 1525 1526 1524 1526 1527 1527 1529 1530 1532 1533 1534 1536 1538 1539 1541 1542 1543 1544 1545 1546 1546 1547 1548 1548 1549 1550 1550 1550 1550 1550 1550 1550 1549 1549 1548 1548 1547 1547 1546 1545 1544 1543 1542 1541 1539 1538 1536 1534 1533 1531 1529 1527 1525 1523 1522 1520 1518
1540 1539 1537 1527 1518 1518 1520 1529 1543 1545 1540 1539 1545 1550 1551 1553 1551 1542 1535 1529 1525 1533 1530 1510 1501 1509 1518 1522 1523 1524 1523 1523 1524 1525 1526 1528 1528 1530 1532 1533 1534 1536 1537 1539 1540 1541 1542 1543 1544 1544 1545 1546 1546 1547 1547 1547 1548 1548 1548 1548 1548 1547 1547 1547 1546 1545 1545 1544 1543 1542 1541 1540 1539 1537 1536 1534 1532 1530 1528 1527 1525 1523 1521 1520 1518 1516
1538 1535 1543 1543 1537 1543 1547 1550 1560 1556 1544 1541 1542 1544 1547 1550 1551 1545 1534 1523 1523 1527 1517 1504 1507 1509 1506 1512 1519 1520 1520 1522 1522 1522 1523 1524 1526 1528 1530 1531 1533 1534 1535 1537 1538 1539 1540 1540 1541 1542 1543 1543 1544 1544 1544 1545 1545 1545 1546 1545 1545 1545 1545 1545 1544 1543 1543 1542 1541 1540 1539 1538 1537 1535 1533 1532 1530 1528 1526 1524 1523 1521 1519 1517 1515 1514
1535 1532 1548 1551 1546 1558 1564 1560 1562 1560 1552 1552 1549 1545 1546 1547 1548 1543 1532 1527 1525 1515 1506 1511 1518 1510 1502 1508 1512 1514 1517 1517 1517 1519 1520 1522 1525 1526 1528 1529 1531 1532 1533 1534 1535 1536 1537 1538 1539 1540 1540 1541 1541 1542 1542 1542 1542 1543 1543 1543 1543 1543 1543 1542 1542 1541 1541 1540 1539 1538 1537 1536 1534 1533 1531 1529 1528 1526 1524 1522 1521 1519 1517 1515 1513 1512
1534 1535 1553 1556 1547 1555 1563 1562 1563 1560 1554 1553 1551 1548 1546 1544 1543 1538 1531 1532 1530 1517 1513 1525 1529 1516 1508 1510 1511 1512 1515 1515 1517 1519 1520 1521 1523 1524 1526 1527 1527 1529 1530 1531 1532 1534 1534 1535 1536 1537 1538 1538 1539 1539 1539 1539 1540 1540 1540 1541 1541 1541 1540 1540 1540 1539 1538 1538 1537 1536 1535 1534 1532 1531 1529 1527 1526 1524 1522 1520 1519 1517 1515 1513 1511 1510
1535 1537 1553 1554 1542 1545 1559 1562 1561 1559 1555 1551 1547 1547 1547 1545 1545 1542 1535 1535 1536 1526 1520 1526 1527 1516 1508 1508 1511 1512 1513 1515 1517 1517 1518 1519 1520 1521 1523 1524 1524 1526 1527 1528 1530 1531 1532 1533 1534 1534 1535 1535 1536 1537 1537 1537 1537 1538 1538 1538 1538 1538 1538 1538 1537 1537 1536 1535 1535 1534 1533 1531 1530 1529 1527 1525 1524 1522 1520 1519 1517 1515 1513 1511 1510 1508
1537 1542 1553 1550 1533 1535 1556 1562 1556 1558 1559 1551 1543 1541 1542 1541 1538 1535 1531 1529 1526 1520 1519 1523 1519 1506 1499 1504 1509 1510 1511 1513 1513 1513 1515 1516 1517 1519 1519 1520 1522 1523 1524 1526 1527 1528 1530 1530 1531 1532 1532 1533 1534 1534 1534 1534 1535 1535 1535 1535 1536 1536 1536 1535 1535 1534 1534 1533 1532 1531 1530 1529 1528 1526 1525 1523 1522 1520 1518 1517 1515 1513 1511 1509 1508 1506
1541 1539 1544 1544 1530 1532 1554 1563 1557 1554 1542 1524 1518 1519 1522 1526 1526 1525 1524 1522 1518 1515 1515 1513 1504 1496 1498 1503 1505 1507 1509 1510 1509 1509 1510 1511 1513 1515 1516 1517 1519 1520 1522 1524 1525 1526 1527 1527 1528 1529 1530 1531 1531 1531 1532 1532 1532 1532 1533 1533 1533 1533 1533 1533 1532 1532 1531 1530 1530 1529 1528 1527 1525 1524 1522 1521 1519 1518 1516 1514 1513 1511 1509 1508 1506 1504
1543 1535 1539 1542 1528 1530 1553 1561 1553 1538 1512 1497 1504 1511 1510 1512 1515 1515 1513 1510 1511 1511 1506 1500 1496 1497 1501 1502 1501 1504 1505 1505 1505 1505 1506 1508 1510 1512 1513 1514 1516 1518 1520 1521 1522 1523 1524 1525 1526 1527 1527 1528 1528 1528 1529 1529 1529 1530 1530 1530 1530 1530 1530 1530 1529 1529 1528 1528 1527 1526 1525 1524 1523 1521 1520 1518 1517 1515 1514 1512 1510 1509 1507 1506 1504 1502
1540 1536 1543 1547 1536 1535 1551 1550 1531 1511 1498 1500 1512 1515 1511 1510 1510 1509 1506 1503 1506 1507 1502 1499 1497 1497 1500 1500 1500 1502 1502 1502 1503 1503 1504 1506 1507 1509 1511 1512 1513 1516 1517 1518 1519 1520 1521 1522 1523 1523 1524 1525 1525 1526 1526 1526 1527 1527 1527 1527 1527 1527 1527 1527 1526 1526 1525 1525 1524 1523 1522 1521 1520 1518 1517 1516 1514 1513 1511 1510 1508 1506 1505 1503 1501 1500
1536 1536 1541 1546 1542 1538 1540 1533 1511 1495 1497 1508 1514 1514 1512 1512 1512 1511 1505 1499 1498 1500 1500 1498 1494 1493 1497 1500 1500 1501 1501 1502 1502 1501 1502 1504 1505 1507 1508 1509 1511 1513 1514 1516 1517 1518 1519 1520 1520 1521 1521 1522 1522 1523 1523 1524 1524 1524 1524 1524 1524 1524 1524 1524 1523 1523 1522 1522 1521 1520 1519 1518 1517 1515 1514 1513 1512 1510 1509 1507 1506 1504 1502 1501 1499 1497
1535 1535 1533 1536 1541 1538 1532 1525 1510 1497 1495 1498 1502 1506 1507 1505 1505 1505 1497 1488 1485 1489 1493 1491 1489 1490 1494 1497 1499 1500 1501 1502 1501 1500 1500 1501 1502 1504 1505 1507 1509 1510 1512 1513 1514 1515 1516 1516 1517 1518 1518 1519 1520 1520 1520 1521 1521 1521 1521 1521 1521 1521 1521 1521 1520 1520 1519 1519 1518 1517 1516 1515 1513 1512 1511 1510 1509 1508 1506 1505 1503 1501 1500 1498 1497 1495
1535 1535 1529 1527 1537 1542 1535 1525 1516 1504 1493 1489 1493 1499 1500 1499 1501 1502 1497 1487 1479 1481 1484 1484 1485 1487 1490 1495 1499 1500 1502 1503 1499 1495 1496 1499 1500 1501 1503 1505 1506 1508 1509 1510 1511 1512 1513 1513 1514 1515 1515 1516 1517 1517 1518 1518 1518 1518 1518 1518 1518 1518 1518 1518 1517 1517 1516 1515 1515 1514 1513 1512 1510 1509 1508 1507 1506 1505 1503 1502 1501 1499 1497 1496 1494 1493
1536 1537 1533 1528 1535 1542 1534 1523 1517 1504 1490 1488 1494 1499 1500 1500 1501 1501 1496 1484 1476 1478 1481 1481 1483 1485 1488 1492 1496 1498 1501 1500 1494 1491 1494 1497 1498 1499 1501 1502 1504 1506 1507 1507 1508 1509 1510 1511 1512 1512 1513 1513 1514 1514 1515 1515 1515 1515 1515 1515 1515 1515 1514 1515 1514 1513 1513 1512 1511 1510 1509 1508 1507 1506 1505 1504 1503 1502 1501 1499 1498 1496 1495 1493 1492 1490
1535 1535 1535 1531 1533 1537 1532 1522 1516 1504 1492 1492 1497 1499 1500 1501 1501 1499 1490 1477 1475 1479 1479 1479 1481 1483 1486 1490 1494 1497 1496 1493 1489 1490 1493 1494 1496 1497 1499 1500 1502 1503 1504 1505 1506 1507 1507 1508 1509 1509 1510 1511 1511 1512 1512 1511 1512 1512 1512 1512 1512 1511 1511 1512 1511 1510 1509 1509 1508 1507 1506 1505 1504 1503 1502 1501 1500 1499 1498 1496 1495 1493 1492 1490 1489 1487
1538 1539 1540 1536 1532 1534 1532 1523 1514 1502 1493 1495 1498 1497 1500 1502 1501 1496 1482 1474 1476 1479 1477 1478 1481 1482 1484 1488 1490 1491 1489 1488 1489 1490 1491 1493 1495 1496 1497 1498 1500 1501 1502 1503 1503 1504 1505 1506 1506 1507 1507 1508 1508 1508 1508 1508 1508 1508 1509 1509 1508 1508 1509 1508 1507 1506 1506 1505 1505 1504 1503 1502 1500 1499 1498 1497 1496 1495 1494 1493 1492 1490 1489 1487 1486 1485
1533 1538 1542 1540 1534 1534 1534 1529 1519 1501 1488 1489 1495 1498 1501 1498 1492 1484 1477 1475 1477 1477 1477 1479 1480 1480 1483 1485 1485 1486 1486 1488 1490 1491 1492 1493 1494 1495 1496 1497 1498 1499 1500 1500 1501 1502 1502 1503 1503 1504 1504 1504 1505 1505 1505 1505 1505 1505 1505 1504 1504 1505 1506 1504 1503 1502 1502 1502 1501 1500 1499 1498 1497 1496 1495 1494 1493 1492 1491 1490 1488 1487 1486 1484 1483 1482
1517 1519 1526 1531 1529 1532 1537 1534 1520 1497 1482 1485 1492 1497 1498 1490 1479 1475 1476 1477 1478 1477 1477 1479 1479 1480 1482 1483 1484 1485 1487 1488 1489 1490 1491 1492 1492 1494 1495 1495 1496 1497 1498 1498 1499 1499 1500 1500 1500 1501 1501 1501 1501 1501 1501 1501 1501 1501 1501 1500 1501 1503 1501 1500 1499 1498 1498 1498 1497 1497 1496 1494 1493 1492 1491 1490 1489 1488 1488 1487 1485 1484 1483 1481 1480 1478
1506 1504 1510 1514 1514 1518 1524 1518 1500 1484 1480 1483 1483 1483 1485 1481 1476 1476 1478 1477 1477 1477 1478 1478 1479 1480 1481 1482 1484 1485 1486 1487 1488 1489 1490 1491 1491 1492 1493 1493 1495 1495 1495 1496 1496 1497 1497 1497 1497 1498 1498 1498 1498 1498 1498 1497 1497 1497 1497 1497 1499 1499 1497 1496 1495 1494 1494 1494 1494 1493 1492 1491 1490 1488 1487 1486 1486 1485 1484 1483 1482 1481 1479 1478 1477 1475
1495 1495 1498 1499 1498 1499 1498 1491 1482 1479 1482 1482 1478 1476 1477 1477 1477 1478 1477 1477 1478 1478 1478 1479 1479 1480 1481 1482 1483 1484 1485 1486 1487 1488 1489 1489 1490 1490 1491 1492 1492 1492 1493 1494 1493 1494 1494 1494 1494 1495 1494 1494 1494 1494 1494 1494 1494 1493 1493 1494 1495 1494 1493 1492 1491 1490 1491 1490 1490 1489 1488 1487 1486 1485 1484 1483 1482 1481 1481 1479 1478 1478 1476 1475 1473 1472
1494 1496 1495 1493 1493 1491 1485 1479 1479 1481 1480 1479 1477 1476 1476 1476 1477 1478 1477 1478 1478 1478 1478 1479 1479 1479 1481 1481 1482 1483 1484 1484 1485 1486 1487 1487 1488 1489 1489 1489 1490 1490 1490 1491 1491 1491 1491 1491 1491 1491 1490 1491 1491 1490 1490 1491 1490 1489 1490 1491 1491 1489 1489 1488 1487 1486 1487 1486 1486 1485 1484 1483 1482 1481 1480 1479 1478 1477 1477 1475 1475 1474 1473 1471 1470 1469
1494 1495 1494 1493 1493 1488 1478 1474 1476 1477 1476 1478 1477 1475 1475 1476 1476 1476 1477 1477 1477 1477 1478 1478 1478 1479 1480 1480 1480 1481 1482 1483 1484 1484 1485 1485 1486 1486 1487 1487 1487 1487 1488 1488 1488 1488 1488 1487 1487 1487 1486 1487 1487 1487 1487 1486 1486 1486 1487 1487 1486 1485 1485 1484 1483 1483 1483 1482 1482 1481 1480 1479 1479 1477 1476 1475 1474 1473 1473 1472 1471 1470 1469 1468 1467 1465
1488 1491 1492 1491 1490 1485 1476 1472 1474 1475 1474 1475 1475 1473 1473 1473 1473 1474 1475 1475 1476 1476 1476 1476 1477 1477 1478 1478 1479 1480 1480 1481 1481 1481 1482 1483 1483 1483 1484 1484 1484 1485 1485 1485 1485 1485 1484 1484 1483 1483 1483 1483 1483 1483 1483 1482 1482 1483 1483 1482 1482 1481 1480 1479 1479 1479 1478 1478 1478 1477 1476 1476 1475 1474 1473 1472 1471 1470 1469 1468 1467 1466 1466 1465 1463 1462
1487 1488 1487 1486 1486 1483 1475 1470 1472 1474 1472 1470 1470 1470 1470 1470 1471 1472 1473 1473 1474 1474 1474 1475 1475 1475 1476 1477 1477 1477 1477 1478 1478 1479 1480 1480 1480 1481 1481 1481 1482 1482 1482 1482 1482 1481 1480 1480 1479 1479 1479 1479 1480 1479 1479 1478 1478 1478 1478 1478 1477 1477 1476 1475 1475 1475 1474 1474 1473 1473 1472 1472 1471 1470 1469 1468 1467 1466 1465 1464 1463 1462 1462 1461 1460 1458
1484 1482 1482 1484 1482 1477 1470 1465 1467 1469 1468 1465 1465 1466 1466 1467 1469 1469 1469 1470 1470 1470 1471 1472 1473 1473 1474 1474 1475 1475 1475 1475 1476 1477 1477 1476 1477 1477 1478 1478 1478 1478 1478 1478 1478 1477 1476 1476 1476 1475 1475 1475 1476 1475 1474 1474 1474 1474 1474 1474 1473 1472 1472 1471 1471 1470 1470 1469 1469 1469 1468 1468 1467 1466 1465 1464 1463 1462 1461 1461 1460 1459 1458 1457 1456 1455
1472 1469 1472 1473 1468 1463 1461 1461 1463 1465 1464 1463 1464 1465 1465 1466 1466 1466 1467 1467 1467 1467 1468 1469 1469 1470 1470 1471 1472 1472 1472 1472 1473 1473 1473 1473 1473 1473 1474 1474 1474 1474 1474 1474 1473 1473 1473 1472 1472 1471 1471 1471 1472 1471 1470 1470 1470 1470 1470 1469 1469 1468 1468 1467 1466 1466 1465 1465 1465 1465 1464 1463 1462 1462 1461 1460 1459 1458 1457 1457 1456 1455 1454 1453 1452 1451